Latest Coastal Weather Observations for Browse Island

IDW60701

Issued at 9:52 am WST Tuesday 28 June 2016 (issued every 10 minutes, with the page automatically refreshed every 10 minutes)

About coastal observations | Map of coastal stations | Coastal observations for WA | Marine services | Other Formats
Station Details ID: 200784 Name: BROWSE ISLAND Lat: -14.11 Lon: 123.55 Height: 3.7 m
Data from the previous 72 hours. | See also: Recent months at Browse Island
Date/Time
WST
Temp
°C
Wind Pressure Rain since
9am
mm
Weather Cloud Vis
km
Sea
Height
m
Swell
Dir  Spd
kts
Gust
kts
hPa Trend Height
m
Period
s
Dir
28/09:30am 30.0 E 16 - 1014.0 - - - - - - - - -
28/09:00am 30.1 E 16 - 1014.2 - - - - - - - - -
28/08:30am 30.0 E 14 - 1014.0 - - - - - - - - -
28/08:00am 29.6 E 15 - 1013.7 - - - - - - - - -
28/07:30am 29.0 E 16 - 1013.0 - - - - - - - - -
28/07:00am 29.1 E 16 - 1012.9 - - - - - - - - -
28/06:30am 29.0 E 15 - 1012.0 - - - - - - - - -
28/06:00am 28.7 E 14 - 1012.3 - - - - - - - - -
28/05:30am 29.0 E 15 - 1012.0 - - - - - - - - -
28/05:00am 28.7 E 13 - 1011.8 - - - - - - - - -
28/04:30am 29.0 ENE 15 - 1011.0 - - - - - - - - -
28/04:00am 28.6 ENE 15 - 1011.4 - - - - - - - - -
28/03:30am 29.0 ENE 15 - 1011.0 - - - - - - - - -
28/03:00am 28.3 ENE 14 - 1011.3 - - - - - - - - -
28/02:30am 28.0 ENE 14 - 1011.0 - - - - - - - - -
28/02:00am 28.3 ENE 15 - 1011.5 - - - - - - - - -
28/01:30am 28.0 ENE 14 - 1011.0 - - - - - - - - -
28/01:00am 28.3 ENE 15 - 1012.1 - - - - - - - - -
28/12:30am 28.0 ENE 13 - 1012.0 - - - - - - - - -
28/12:00am 28.4 ENE 13 - 1012.5 - - - - - - - - -
 
Date/Time
WST
Temp
°C
Wind Pressure Rain since
9am
mm
Weather Cloud Vis
km
Sea
Height
m
Swell
Dir  Spd
kts
Gust
kts
hPa Trend Height
m
Period
s
Dir
27/11:30pm 29.0 ENE 14 - 1012.0 - - - - - - - - -
27/11:00pm 28.6 NE 11 - 1012.8 - - - - - - - - -
27/10:30pm 29.0 NE 12 - 1013.0 - - - - - - - - -
27/10:00pm 28.6 NE 11 - 1013.2 - - - - - - - - -
27/09:30pm 29.0 NE 11 - 1013.0 - - - - - - - - -
27/09:00pm 28.5 NE 11 - 1013.2 - - - - - - - - -
27/08:30pm 28.0 NE 13 - 1013.0 - - - - - - - - -
27/08:00pm 28.5 NE 13 - 1013.0 - - - - - - - - -
27/07:30pm 29.0 ENE 13 - 1013.0 - - - - - - - - -
27/07:00pm 28.5 ENE 13 - 1012.6 - - - - - - - - -
27/06:30pm 29.0 ENE 12 - 1012.0 - - - - - - - - -
27/06:00pm 28.4 ENE 13 - 1011.9 - - - - - - - - -
27/05:30pm 29.0 ENE 13 - 1011.0 - - - - - - - - -
27/05:00pm 28.6 ENE 15 - 1010.9 - - - - - - - - -
27/04:30pm 29.0 ENE 13 - 1010.0 - - - - - - - - -
27/04:00pm 29.4 E 13 - 1010.3 - - - - - - - - -
27/03:30pm 30.0 E 13 - 1010.0 - - - - - - - - -
27/03:00pm 29.3 E 12 - 1010.1 - - - - - - - - -
27/02:30pm 29.0 E 11 - 1010.0 - - - - - - - - -
27/02:00pm 29.1 E 12 - 1010.1 - - - - - - - - -
27/01:30pm 30.0 E 12 - 1010.0 - - - - - - - - -
27/01:00pm 28.7 ESE 12 - 1010.5 - - - - - - - - -
27/12:30pm 29.0 ESE 12 - 1010.0 - - - - - - - - -
27/12:00pm 28.9 ESE 13 - 1011.1 - - - - - - - - -
27/11:30am 30.0 ESE 12 - 1011.0 - - - - - - - - -
27/11:00am 29.1 SE 12 - 1011.9 - - - - - - - - -
27/10:30am 30.0 SE 12 - 1012.0 - - - - - - - - -
27/10:00am 29.0 SSE 12 - 1012.2 - - - - - - - - -
27/09:30am 29.0 SSE 12 - 1012.0 - - - - - - - - -
27/09:00am 28.7 SSE 11 - 1012.4 - - - - - - - - -
27/08:30am 29.0 SE 11 - 1012.0 - - - - - - - - -
27/08:00am 28.5 SSE 11 - 1012.4 - - - - - - - - -
27/07:30am 29.0 SSE 12 - 1012.0 - - - - - - - - -
27/07:00am 28.2 SSE 12 - 1011.9 - - - - - - - - -
27/06:30am 28.0 SSE 11 - 1011.0 - - - - - - - - -
27/06:00am 28.1 SSE 11 - 1011.7 - - - - - - - - -
27/05:30am 28.0 SSE 10 - 1011.0 - - - - - - - - -
27/05:00am 28.2 SSE 10 - 1011.6 - - - - - - - - -
27/04:30am 28.0 SSE 10 - 1011.0 - - - - - - - - -
27/04:00am 28.2 SE 10 - 1011.9 - - - - - - - - -
27/03:30am 28.0 SSE 12 - 1011.0 - - - - - - - - -
27/03:00am 27.9 SSE 12 - 1011.9 - - - - - - - - -
27/02:30am 28.0 S 13 - 1011.0 - - - - - - - - -
27/02:00am 28.2 S 14 - 1011.9 - - - - - - - - -
27/01:30am 28.0 S 14 - 1012.0 - - - - - - - - -
27/01:00am 28.6 S 14 - 1012.2 - - - - - - - - -
27/12:30am 29.0 S 13 - 1012.0 - - - - - - - - -
27/12:00am 28.9 S 13 - 1012.5 - - - - - - - - -
 
Date/Time
WST
Temp
°C
Wind Pressure Rain since
9am
mm
Weather Cloud Vis
km
Sea
Height
m
Swell
Dir  Spd
kts
Gust
kts
hPa Trend Height
m
Period
s
Dir
26/11:30pm 29.0 S 11 - 1012.0 - - - - - - - - -
26/11:00pm 28.7 S 11 - 1012.7 - - - - - - - - -
26/10:30pm 28.0 S 11 - 1013.0 - - - - - - - - -
26/10:00pm 28.1 S 11 - 1013.1 - - - - - - - - -
26/09:30pm 28.0 S 12 - 1013.0 - - - - - - - - -
26/09:00pm 28.3 S 11 - 1013.0 - - - - - - - - -
26/08:30pm 28.0 S 10 - 1012.0 - - - - - - - - -
26/08:00pm 28.0 SSE 9 - 1012.6 - - - - - - - - -
26/07:30pm 28.0 SSE 11 - 1012.0 - - - - - - - - -
26/07:00pm 28.3 SSE 11 - 1012.0 - - - - - - - - -
26/06:30pm 29.0 SSE 10 - 1011.0 - - - - - - - - -
26/06:00pm 28.6 SE 9 - 1011.3 - - - - - - - - -
26/05:30pm 29.0 SE 9 - 1011.0 - - - - - - - - -
26/05:00pm 28.5 SE 9 - 1010.9 - - - - - - - - -
26/04:30pm 29.0 SE 10 - 1010.0 - - - - - - - - -
26/04:00pm 28.8 SE 11 - 1010.5 - - - - - - - - -
26/03:30pm 29.0 SE 11 - 1010.0 - - - - - - - - -
26/03:00pm 28.8 SSE 13 - 1010.4 - - - - - - - - -
26/02:30pm 29.0 SSE 13 - 1010.0 - - - - - - - - -
26/02:00pm 28.2 SSE 13 - 1011.1 - - - - - - - - -
26/01:30pm 28.0 SSE 14 - 1011.0 - - - - - - - - -
26/01:00pm 28.5 SE 13 - 1011.4 - - - - - - - - -
26/12:30pm 29.0 SSE 13 - 1011.0 - - - - - - - - -
26/12:00pm 28.2 SSE 14 - 1012.2 - - - - - - - - -
26/11:30am 29.0 SE 14 - 1012.0 - - - - - - - - -
26/11:00am 29.0 SE 13 - 1013.0 - - - - - - - - -
26/10:30am 29.0 SE 13 - 1013.0 - - - - - - - - -
26/10:00am 28.9 SSE 14 - 1013.7 - - - - - - - - -
26/09:30am 28.0 SSE 14 - 1013.0 - - - - - - - - -
26/09:00am 28.5 SSE 14 - 1014.0 - - - - - - - - -
26/08:30am 28.0 SSE 15 - 1014.0 - - - - - - - - -
26/08:00am 28.0 SSE 15 - 1013.8 - - - - - - - - -
26/07:30am 28.0 SSE 14 - 1013.0 - - - - - - - - -
26/07:00am 27.8 S 15 - 1013.5 - - - - - - - - -
26/06:30am 28.0 SSE 14 - 1013.0 - - - - - - - - -
26/06:00am 28.2 S 15 - 1013.1 - - - - - - - - -
26/05:30am 28.0 S 15 - 1013.0 - - - - - - - - -
26/05:00am 28.1 S 15 - 1012.7 - - - - - - - - -
26/04:30am 28.0 S 15 - 1012.0 - - - - - - - - -
26/04:00am 27.7 S 15 - 1012.4 - - - - - - - - -
26/03:30am 28.0 S 15 - 1012.0 - - - - - - - - -
26/03:00am 27.5 S 14 - 1012.1 - - - - - - - - -
26/02:30am 28.0 S 14 - 1012.0 - - - - - - - - -
26/02:00am 27.5 S 14 - 1012.2 - - - - - - - - -
26/01:30am 27.0 S 13 - 1012.0 - - - - - - - - -
26/01:00am 27.7 S 13 - 1012.5 - - - - - - - - -
26/12:30am 28.0 SSW 11 - 1012.0 - - - - - - - - -
26/12:00am 27.7 SSW 11 - 1012.7 - - - - - - - - -
 
Date/Time
WST
Temp
°C
Wind Pressure Rain since
9am
mm
Weather Cloud Vis
km
Sea
Height
m
Swell
Dir  Spd
kts
Gust
kts
hPa Trend Height
m
Period
s
Dir
25/11:30pm 28.0 SSW 9 - 1012.0 - - - - - - - - -
25/11:00pm 27.7 SSW 8 - 1012.9 - - - - - - - - -
25/10:30pm 28.0 S 8 - 1013.0 - - - - - - - - -
25/10:00pm 27.8 S 8 - 1013.2 - - - - - - - - -
25/09:30pm 28.0 S 9 - 1013.0 - - - - - - - - -
25/09:00pm 27.8 SSW 9 - 1013.3 - - - - - - - - -
25/08:30pm 28.0 S 9 - 1013.0 - - - - - - - - -
25/08:00pm 27.8 S 8 - 1013.3 - - - - - - - - -
25/07:30pm 28.0 SSW 7 - 1013.0 - - - - - - - - -
25/07:00pm 27.9 S 8 - 1013.0 - - - - - - - - -
25/06:30pm 28.0 S 7 - 1012.0 - - - - - - - - -
25/06:00pm 28.0 S 7 - 1012.3 - - - - - - - - -
25/05:30pm 28.0 S 7 - 1012.0 - - - - - - - - -
25/05:00pm 28.1 S 7 - 1011.8 - - - - - - - - -
25/04:30pm 28.0 S 6 - 1011.0 - - - - - - - - -
25/04:00pm 28.5 S 5 - 1011.1 - - - - - - - - -
25/03:30pm 29.0 S 5 - 1011.0 - - - - - - - - -
25/03:00pm 28.5 S 5 - 1010.8 - - - - - - - - -
25/02:30pm 29.0 S 5 - 1010.0 - - - - - - - - -
25/02:00pm 28.6 S 5 - 1010.9 - - - - - - - - -
25/01:30pm 29.0 S 4 - 1011.0 - - - - - - - - -
25/01:00pm 29.0 S 4 - 1011.8 - - - - - - - - -
25/12:30pm 29.0 S 4 - 1012.0 - - - - - - - - -
25/12:00pm 29.1 S 4 - 1012.3 - - - - - - - - -
25/11:30am 29.0 SSE 5 - 1012.0 - - - - - - - - -
25/11:00am 30.2 ESE 4 - 1012.9 - - - - - - - - -
25/10:30am 29.0 SE 5 - 1013.0 - - - - - - - - -
25/10:00am 29.1 SE 5 - 1013.2 - - - - - - - - -

Other Formats:

Comma delimited format used in spreadsheet applications
http://www.bom.gov.au/fwo/IDW60701/IDW60701.94103.axf

JavaScript Object Notation format (JSON) in row-major order
http://www.bom.gov.au/fwo/IDW60701/IDW60701.94103.json